Volver al catálogo

STARLINK-11129

ActivoComunicacionesVLEO
NORAD 60038·PAYLOAD·🇺🇸 United States

Lanzado Jun 8, 2024 desde Vandenberg Space Force Base

Loading…

Próximos Pases (próximas 24 horas)

TLE

ActualizadoSource: CelesTrak SupGP

Época: Sep 14, 2026, 15:10 UTC

1 60038C 24112A   26257.63243056 -.00039928  00000+0 -32895-3 0  2577
2 60038  53.1578  55.1789 0001019  93.7794 212.8204 15.69725762    13

Sigue STARLINK-11129 en tiempo real con AllMySat

Download on the App Store